Regional Weather Roundup
Issued by NWS

Home | Current Version | Previous Version | Text Only | Print | Product List | Glossary Off
Versions: 1 2 3 4 5 6 7 8 9 10 11 12 13 14 15 16 17 18 19 20 21 22 23 24 25 26 27 28 29 30 31 32 33 34 35 36 37 38 39 40 41 42 43 44 45 46 47 48 49 50

000
ASUS43 KDTX 051110
RWRMI
MICHIGAN HOURLY REGIONAL WEATHER ROUNDUP
NATIONAL WEATHER SERVICE DETROIT/PONTIAC MI
700 AM EDT TUE MAY 05 2015

NOTE: "FAIR" INDICATES FEW OR NO CLOUDS BELOW 12,000 FEET WITH NO
SIGNIFICANT WEATHER AND/OR OBSTRUCTION TO VISIBILITY.

MIZ047>049-052>055-059>063-066>070-074>076-081>083-051200-
SOUTHEAST LOWER MICHIGAN

CITY           SKY/WX    TMP DP  RH WIND       PRES   REMARKS
ADRIAN         CLOUDY    57  39  51 E9        30.27R
ALMA           CLOUDY    53  40  61 NE6       30.28R
ANN ARBOR      MOCLDY    55  36  48 E8        30.26R
BAD AXE        CLOUDY    45  37  73 NE7       30.29S
CARO           CLOUDY    47  37  69 CALM      30.29R
DETROIT CITY   MOCLDY    53  34  48 NE7       30.28R
DETROIT        CLOUDY    56  35  45 NE9       30.27R
FLINT          CLOUDY    53  35  50 NE9       30.28R
GROSSE ILE     CLOUDY    54  43  66 NE9       30.25R
HILLSDALE      CLOUDY    58  44  60 E6        30.25R
HOWELL         CLOUDY    54  35  49 E6        30.26R

CITY           SKY/WX    TMP DP  RH WIND       PRES   REMARKS
JACKSON        CLOUDY    56  37  49 E7        30.25R
LAMBERTVILLE   CLOUDY    59  48  67 E7        30.25R
LANSING        CLOUDY    54  38  54 E6        30.27R
LAPEER         CLOUDY    49  34  56 E6        30.28R
MASON          CLOUDY    54  38  54 E5        30.26R
MONROE         CLOUDY    55  43  62 NE8       30.25R
PONTIAC        CLOUDY    52  34  50 NE8       30.27R
PORT HOPE        N/A     46  38  73 N6        30.28R
PORT HURON     CLOUDY    48  37  66 NE7       30.28R
TRI CITIES     CLOUDY    51  39  63 E6        30.29R
MIDLAND        MOCLDY    50  39  66 NE3       30.28S
TROY           MOCLDY    53  34  47 NE3       30.29R
SAGINAW HB     DRIZZLE   48  39  71 CALM      30.28S
$$
MIZ043>046-050>051-056>058-064>065-071>073-077>080-051200-
SOUTHWEST LOWER MICHIGAN

CITY           SKY/WX    TMP DP  RH WIND       PRES   REMARKS
BATTLE CREEK   CLOUDY    57  45  64 E8        30.24R
BENTON HARBOR  RAIN      52  51  97 NE5       30.21S FOG
BIG RAPIDS     CLOUDY    50  34  54 E6        30.28R
COLDWATER      CLOUDY    57  53  84 SE6       30.23R
FREMONT        DRIZZLE   53  32  45 E3        30.27R
HOLLAND        CLOUDY    56  44  64 E8        30.24R
GRAND RAPIDS   LGT RAIN  55  42  61 E7        30.26R
IONIA          CLOUDY    53  44  71 NE8       30.25R
KALAMAZOO      LGT RAIN  56  45  66 CALM      30.23R
LUDINGTON      CLOUDY    51  37  58 E3        30.28R
MARSHALL       CLOUDY    56  45  67 E7        30.24R
MOUNT PLEASANT CLOUDY    49  37  62 NE5       30.29R
MUSKEGON       CLOUDY    56  38  50 NE8       30.27R
SOUTH HAVEN    HVY RAIN  53  49  87 N5        30.23R
$$
MIZ016>042-051200-
NORTHERN LOWER MICHIGAN

CITY           SKY/WX    TMP DP  RH WIND       PRES   REMARKS
ALPENA         PTCLDY    41  35  79 NW5       30.30R
BEAVER ISLAND  PTCLDY    31  31  99 SE3       30.32S
BELLAIRE       MOCLDY    33  32  95 CALM      30.31R
CADILLAC       CLOUDY    37  33  85 CALM      30.28R
CHARLEVOIX     PTCLDY    37  36  96 CALM      30.33S
FRANKFORT      CLOUDY    50  30  46 E8        30.28R
GAYLORD        MOCLDY    43  35  73 NE6       30.29S
GRAYLING       MOCLDY    31  28  91 CALM      30.30S
HARBOR SPRINGS PTCLDY    35  35  96 NE5       30.31S WCI  31
MANISTEE       CLOUDY    45  32  61 E5        30.28R
OSCODA         MOCLDY    38  33  81 N6        30.28S WCI  34
PELLSTON       PTCLDY    28  26  92 CALM      30.32S
ROGERS CITY    PTCLDY    39  36  87 W3        30.32S
TRAVERSE CITY  CLOUDY    36  34  92 CALM      30.30R
$$
MIZ007>008-015-051200-
EASTERN UPPER MICHIGAN

CITY           SKY/WX    TMP DP  RH WIND       PRES   REMARKS
KINROSS        CLEAR     34  32  93 CALM      30.32R
MACKINAC ISLAN CLEAR     40  35  83 N5        30.31S
NEWBERRY       CLEAR     33  32  96 CALM      30.31S
S. S. MARIE    CLEAR     35  33  92 W3        30.31R
MUNISING         N/A     38  31  76 S10       30.30S WCI  31
$$
MIZ004>006-011>014-085-051200-
CENTRAL UPPER MICHIGAN

CITY           SKY/WX    TMP DP  RH WIND       PRES   REMARKS
MANISTIQUE     CLEAR     31  30  93 N3        30.31S
ESCANABA       PTCLDY    36  30  80 CALM      30.30S
MENOMINEE      MOCLDY    43  34  70 N5        30.29R
SAWYER-GWINN   CLEAR     32  28  86 CALM      30.30S
$$
MIZ001>003-009>011-084-051200-
WESTERN UPPER MICHIGAN

CITY           SKY/WX    TMP DP  RH WIND       PRES   REMARKS
IRON MOUNTAIN  PTCLDY    35  33  92 NW3       30.30S
HOUGHTON       CLEAR     38  24  57 NW5       30.28R WCI  34
COPPER HARBOR    N/A     44  32  62 SW6       30.27S
IRONWOOD       CLEAR     34  30  86 CALM      30.26R
$$

ABBREVIATIONS USED IN REMARKS
   TC - TEMPERATURE IN CELSIUS
  WCI - WIND CHILL INDEX
   HX - HEAT INDEX
  VSB - VISIBILITY



USA.gov is the U.S. government's official web portal to all federal, state and local government web resources and services.